When you browse on this site, cookies collect data to enhance your experience and personalize the content and advertising you see.
Visit our Privacy Policy to learn more. By continuing to use the site, you agree to this use of cookies and data.
  • In United Kingdom
  • List of Countries
  • For 7 days
  • Water Temperature
  • Weather Map
  • Weather Widgets
  • user-avatar
    Login

    Hourly Weather Mansa

    Today, 19 January, Sunday

    Time Temperature Precipitation Wind Pressure Humidity
    00:00 +20°C° 0.1 mm 3 mps 658 mmHg 97%
    01:00 +20°C° 0.1 mm 3 mps 658 mmHg 97%
    02:00 +19°C° 0 mm 3 mps 658 mmHg 97%
    03:00 +19°C° 0.1 mm 3 mps 658 mmHg 97%
    04:00 +19°C° 0.1 mm 3 mps 658 mmHg 97%
    05:00 +19°C° 0.1 mm 3 mps 658 mmHg 97%
    06:00 +19°C° 0.5 mm 3 mps 658 mmHg 97%
    07:00 +19°C° 0.5 mm 3 mps 659 mmHg 97%
    08:00 +19°C° 0.5 mm 3 mps 659 mmHg 98%
    09:00 +20°C° 0.2 mm 3 mps 659 mmHg 96%
    10:00 +20°C° 0.2 mm 3 mps 659 mmHg 95%
    11:00 +20°C° 0.2 mm 3 mps 660 mmHg 94%
    12:00 +21°C° 0.1 mm 3 mps 659 mmHg 92%
    13:00 +21°C° 0.1 mm 3 mps 659 mmHg 91%
    14:00 +21°C° 0.1 mm 3 mps 658 mmHg 89%
    15:00 +22°C° 0.1 mm 3 mps 658 mmHg 87%
    16:00 +24°C° 0.1 mm 3 mps 657 mmHg 85%
    17:00 +23°C° 0.1 mm 4 mps 657 mmHg 84%
    18:00 +22°C° 0 mm 3 mps 657 mmHg 88%
    19:00 +21°C° 0 mm 3 mps 658 mmHg 93%
    20:00 +20°C° 0 mm 2 mps 658 mmHg 97%
    21:00 +19°C° 0 mm 2 mps 658 mmHg 97%
    22:00 +19°C° 0 mm 2 mps 658 mmHg 98%
    23:00 +19°C° 0 mm 2 mps 659 mmHg 98%

    Tomorrow, 20 January, Monday

    Time Temperature Precipitation Wind Pressure Humidity
    00:00 +19°C° 0 mm 2 mps 658 mmHg 98%
    01:00 +19°C° 0 mm 2 mps 658 mmHg 99%
    02:00 +19°C° 0 mm 2 mps 658 mmHg 99%
    03:00 +18°C° 0 mm 2 mps 658 mmHg 99%
    04:00 +18°C° 0 mm 2 mps 658 mmHg 99%
    05:00 +18°C° 0 mm 2 mps 658 mmHg 99%
    06:00 +19°C° 0 mm 2 mps 658 mmHg 97%
    07:00 +20°C° 0 mm 2 mps 659 mmHg 94%
    08:00 +20°C° 0 mm 3 mps 660 mmHg 92%
    09:00 +21°C° 0 mm 3 mps 660 mmHg 88%
    10:00 +22°C° 0 mm 3 mps 660 mmHg 83%
    11:00 +23°C° 0 mm 4 mps 660 mmHg 79%
    12:00 +26°C° 0 mm 4 mps 659 mmHg 75%
    13:00 +27°C° 0 mm 4 mps 658 mmHg 72%
    14:00 +28°C° 0 mm 4 mps 658 mmHg 68%
    15:00 +27°C° 0.3 mm 3 mps 657 mmHg 74%
    16:00 +26°C° 0.3 mm 3 mps 657 mmHg 79%
    17:00 +26°C° 0.3 mm 2 mps 656 mmHg 84%
    18:00 +24°C° 0.6 mm 2 mps 656 mmHg 88%
    19:00 +23°C° 0.6 mm 1 mps 657 mmHg 92%
    20:00 +22°C° 0.6 mm 1 mps 657 mmHg 95%
    21:00 +22°C° 0.5 mm 1 mps 658 mmHg 95%
    22:00 +21°C° 0.5 mm 1 mps 658 mmHg 96%
    23:00 +21°C° 0.5 mm 1 mps 658 mmHg 96%

    Day after tomorrow, 21 January, Tuesday

    Time Temperature Precipitation Wind Pressure Humidity
    00:00 +20°C° 0.8 mm 2 mps 658 mmHg 97%
    01:00 +20°C° 0.8 mm 2 mps 658 mmHg 97%
    02:00 +20°C° 0.8 mm 2 mps 657 mmHg 98%
    03:00 +20°C° 0.3 mm 2 mps 657 mmHg 98%
    04:00 +20°C° 0.3 mm 2 mps 658 mmHg 98%
    05:00 +20°C° 0.3 mm 2 mps 658 mmHg 97%
    06:00 +20°C° 0 mm 2 mps 658 mmHg 97%
    07:00 +20°C° 0 mm 3 mps 659 mmHg 97%
    08:00 +20°C° 0 mm 3 mps 659 mmHg 96%
    09:00 +21°C° 0.1 mm 3 mps 659 mmHg 93%
    10:00 +21°C° 0.1 mm 3 mps 659 mmHg 91%
    11:00 +22°C° 0.1 mm 3 mps 659 mmHg 88%
    12:00 +24°C° 0.1 mm 3 mps 659 mmHg 82%
    13:00 +26°C° 0.1 mm 4 mps 658 mmHg 77%
    14:00 +27°C° 0.1 mm 4 mps 657 mmHg 71%
    15:00 +26°C° 0.3 mm 3 mps 657 mmHg 75%
    16:00 +26°C° 0.3 mm 2 mps 657 mmHg 79%
    17:00 +25°C° 0.3 mm 2 mps 656 mmHg 82%
    18:00 +24°C° 0.2 mm 1 mps 657 mmHg 86%
    19:00 +23°C° 0.2 mm 1 mps 657 mmHg 90%
    20:00 +22°C° 0.2 mm 1 mps 657 mmHg 93%
    21:00 +22°C° 0.6 mm 1 mps 658 mmHg 94%
    22:00 +21°C° 0.6 mm 1 mps 658 mmHg 95%
    23:00 +21°C° 0.6 mm 1 mps 658 mmHg 96%

    22 January, Wednesday

    Time Temperature Precipitation Wind Pressure Humidity
    00:00 +21°C° 0.9 mm 1 mps 658 mmHg 97%
    01:00 +21°C° 0.9 mm 1 mps 658 mmHg 97%
    02:00 +20°C° 0.9 mm 2 mps 657 mmHg 98%
    03:00 +21°C° 2.2 mm 1 mps 657 mmHg 98%
    04:00 +21°C° 2.2 mm 1 mps 657 mmHg 98%
    05:00 +21°C° 2.2 mm 1 mps 657 mmHg 98%
    06:00 +20°C° 0.4 mm 2 mps 658 mmHg 98%
    07:00 +20°C° 0.4 mm 2 mps 658 mmHg 98%
    08:00 +20°C° 0.4 mm 2 mps 659 mmHg 97%
    09:00 +21°C° 0.4 mm 2 mps 659 mmHg 96%
    10:00 +22°C° 0.4 mm 3 mps 659 mmHg 94%
    11:00 +22°C° 0.4 mm 3 mps 659 mmHg 92%
    12:00 +24°C° 0.4 mm 3 mps 658 mmHg 88%
    13:00 +25°C° 0.4 mm 3 mps 657 mmHg 84%
    14:00 +25°C° 0.4 mm 3 mps 657 mmHg 80%
    15:00 +25°C° 0.2 mm 2 mps 657 mmHg 82%
    16:00 +25°C° 0.2 mm 2 mps 656 mmHg 83%
    17:00 +25°C° 0.2 mm 2 mps 656 mmHg 84%
    18:00 +24°C° 0.5 mm 1 mps 656 mmHg 88%
    19:00 +23°C° 0.5 mm 1 mps 657 mmHg 92%
    20:00 +22°C° 0.5 mm 1 mps 657 mmHg 95%
    21:00 +22°C° 0.4 mm 1 mps 657 mmHg 95%
    22:00 +20°C° 0.4 mm 2 mps 657 mmHg 96%
    23:00 +20°C° 0.4 mm 2 mps 657 mmHg 96%

    23 January, Thursday

    Time Temperature Precipitation Wind Pressure Humidity
    00:00 +20°C° 0.1 mm 2 mps 657 mmHg 96%
    01:00 +20°C° 0.1 mm 2 mps 657 mmHg 97%
    02:00 +20°C° 0.1 mm 2 mps 656 mmHg 97%
    03:00 +20°C° 0.3 mm 2 mps 656 mmHg 97%
    04:00 +19°C° 0.3 mm 2 mps 656 mmHg 98%
    05:00 +19°C° 0.3 mm 2 mps 656 mmHg 98%
    06:00 +19°C° 0.6 mm 2 mps 657 mmHg 98%
    07:00 +19°C° 0.6 mm 2 mps 657 mmHg 98%
    08:00 +20°C° 0.6 mm 2 mps 658 mmHg 98%
    09:00 +20°C° 0.5 mm 3 mps 658 mmHg 97%
    10:00 +21°C° 0.5 mm 3 mps 658 mmHg 95%
    11:00 +21°C° 0.5 mm 4 mps 658 mmHg 94%
    12:00 +23°C° 0.3 mm 4 mps 658 mmHg 87%
    13:00 +25°C° 0.3 mm 3 mps 657 mmHg 81%
    14:00 +26°C° 0.3 mm 3 mps 657 mmHg 74%
    15:00 +26°C° 0.1 mm 3 mps 657 mmHg 77%
    16:00 +25°C° 0.1 mm 2 mps 656 mmHg 79%
    17:00 +25°C° 0.1 mm 2 mps 656 mmHg 82%
    18:00 +24°C° 0.2 mm 2 mps 656 mmHg 86%
    19:00 +23°C° 0.2 mm 1 mps 657 mmHg 89%
    20:00 +22°C° 0.2 mm 1 mps 657 mmHg 93%
    21:00 +21°C° 0.3 mm 1 mps 657 mmHg 93%
    22:00 +21°C° 0.3 mm 1 mps 657 mmHg 93%
    23:00 +21°C° 0.3 mm 1 mps 658 mmHg 94%

    24 January, Friday

    Time Temperature Precipitation Wind Pressure Humidity
    00:00 +21°C° 0.5 mm 1 mps 657 mmHg 95%
    01:00 +21°C° 0.5 mm 1 mps 657 mmHg 96%
    02:00 +20°C° 0.5 mm 2 mps 657 mmHg 97%
    03:00 +20°C° 0.8 mm 2 mps 657 mmHg 97%
    04:00 +20°C° 0.8 mm 2 mps 657 mmHg 97%
    05:00 +19°C° 0.8 mm 2 mps 657 mmHg 97%
    06:00 +20°C° 1.3 mm 2 mps 658 mmHg 97%
    07:00 +20°C° 1.3 mm 2 mps 658 mmHg 97%
    08:00 +20°C° 1.3 mm 2 mps 659 mmHg 97%
    09:00 +20°C° 1.3 mm 2 mps 659 mmHg 97%
    10:00 +20°C° 1.3 mm 2 mps 659 mmHg 97%
    11:00 +20°C° 1.3 mm 2 mps 659 mmHg 96%
    12:00 +23°C° 0.5 mm 2 mps 658 mmHg 92%
    13:00 +24°C° 0.5 mm 3 mps 658 mmHg 87%
    14:00 +25°C° 0.5 mm 3 mps 657 mmHg 82%
    15:00 +25°C° 0.6 mm 3 mps 657 mmHg 83%
    16:00 +25°C° 0.6 mm 2 mps 657 mmHg 84%
    17:00 +25°C° 0.6 mm 2 mps 656 mmHg 84%
    18:00 +24°C° 0.8 mm 2 mps 657 mmHg 88%
    19:00 +23°C° 0.8 mm 1 mps 657 mmHg 91%
    20:00 +21°C° 0.8 mm 1 mps 657 mmHg 95%
    21:00 +21°C° 0.7 mm 1 mps 657 mmHg 95%
    22:00 +21°C° 0.7 mm 1 mps 658 mmHg 96%
    23:00 +21°C° 0.7 mm 1 mps 658 mmHg 96%
    Show more